Location: Pallagorio
(39.3000°N, 16.9000°E)
Time: 21:57:05
(UTC+00:00)

SKYMED 2 - Pass Details

Date: 24 January 2021
Orbit: 621 x 624 km, 97.9° (Epoch: 03 March)

Event Time Altitude Azimuth Distance (km) Brightness Sun altitude
Rises 16:45:06 0° 15° (NNE) 2,910 6.7 -8.3°
Reaches altitude 10° 16:47:19 10° 19° (NNE) 1,999 5.8 -8.7°
Maximum altitude 16:51:39 65° 101° (ESE) 686 3.6 -9.5°
Drops below altitude 10° 16:55:56 10° 184° (S) 1,983 6.4 -10.3°
Sets 16:58:07 0° 187° (S) 2,884 7.3 -10.7°
